McGrath, AK

10:44 AM AKDT on June 22, 2017 (GMT -0800)
McGrath

Weather History for PAMC - August, 2013

Change the Weather History Date:

Saturday, August 17, 2013

  Actual Average Record
Temperature  
Mean Temperature 63 °F 55 °F  
Max Temperature 71 °F 63 °F 84 °F (2004)
Min Temperature 55 °F 46 °F 29 °F (1981)
Degree Days  
Heating Degree Days 2 11  
Month to date heating degree days 82 153  
Since 1 June heating degree days 382 559  
Since 1 July heating degree days 247 325  
Cooling Degree Days 0    
Month to date cooling degree days 3  
Year to date cooling degree days 78 16  
Since 1 June cooling degree days 69 16  
Growing Degree Days 12 (Base 50)    
Moisture  
Dew Point 53 °F    
Average Humidity 0    
Maximum Humidity 0    
Minimum Humidity 0    
Precipitation  
Precipitation 0.03 in 0.09 in 0.74 in (1991)
Month to date precipitation 1.38 1.55  
Year to date precipitation 8.02 10.12  
Snow  
Snow 0.00 in 0.00 in 0.00 in (2016)
Month to date snowfall 0.0 0.0  
Since 1 June snowfall 0.0 0.0  
Since 1 July snowfall 0.0 0.0  
Snow Depth 0.00 in    
Sea Level Pressure  
Sea Level Pressure 29.60 in    
Wind  
Wind Speed 4 mph (NNW)    
Max Wind Speed 15 mph    
Max Gust Speed 22 mph    
Visibility 10 miles    
Events Rain    
T = Trace of Precipitation, MM = Missing Value Source: NWS Daily Summary

Daily Weather History Graph

Daily Weather History Graph

Search for Another Location

Airport or City:

Trip Planner

Search our weather history database for the weather conditions in past years. The results will help you decide how hot, cold, wet, or windy it might be!

Date:

Astronomy

Aug. 17, 2013 Rise Set
Actual Time 6:28 AM AKDT 10:22 PM AKDT
Civil Twilight 5:29 AM AKDT 11:20 PM AKDT
Nautical Twilight 3:51 AM AKDT 12:54 AM AKDT
Astronomical Twilight Sun does not set Sun does not set
Moon 8:20 PM AKDT (8/17) 2:00 AM AKDT (8/17)
Length of Visible Light 17h 50m
Length of Day
15h 54m
Waxing Gibbous, 85% of the Moon is Illuminated
Aug 17
Waxing Gibbous
Aug 20
Full
Aug 28
Last Quarter
Sep 5
New
Sep 12
First Quarter

Hourly Weather History & Observations

Time (AKDT) Temp. Dew Point Humidity Pressure Visibility Wind Dir Wind Speed Gust Speed Precip Events Conditions
12:53 AM 59.0 °F 52.0 °F 78% 29.60 in 10.0 mi Calm Calm - N/A   Overcast
1:53 AM 59.0 °F 51.1 °F 75% 29.60 in 10.0 mi Calm Calm - N/A   Overcast
2:53 AM 57.0 °F 53.1 °F 87% 29.60 in 10.0 mi West 3.5 mph - 0.00 in Rain Light Rain
3:53 AM 55.9 °F 53.1 °F 90% 29.60 in 10.0 mi WNW 3.5 mph - 0.00 in   Overcast
4:53 AM 55.9 °F 53.1 °F 90% 29.61 in 10.0 mi Calm Calm - 0.00 in Rain Light Rain
5:53 AM 55.0 °F 52.0 °F 89% 29.61 in 10.0 mi NNW 3.5 mph - 0.01 in Rain Light Rain
6:53 AM 55.0 °F 52.0 °F 89% 29.61 in 10.0 mi NE 3.5 mph - 0.01 in   Overcast
7:53 AM 55.0 °F 51.1 °F 86% 29.62 in 10.0 mi Calm Calm - 0.00 in Rain Light Rain
8:53 AM 55.9 °F 51.1 °F 84% 29.62 in 9.0 mi Calm Calm - 0.01 in Rain Light Rain
9:53 AM 55.9 °F 52.0 °F 87% 29.62 in 10.0 mi North 5.8 mph - 0.00 in   Mostly Cloudy
10:53 AM 57.9 °F 53.1 °F 84% 29.63 in 10.0 mi North 5.8 mph - N/A   Mostly Cloudy
11:53 AM 62.1 °F 53.1 °F 72% 29.61 in 10.0 mi North 6.9 mph - N/A   Mostly Cloudy
12:53 PM 64.0 °F 53.1 °F 67% 29.61 in 10.0 mi North 8.1 mph - N/A   Mostly Cloudy
1:53 PM 64.0 °F 52.0 °F 65% 29.61 in 10.0 mi North 8.1 mph - N/A   Mostly Cloudy
2:53 PM 66.9 °F 52.0 °F 59% 29.60 in 10.0 mi North 6.9 mph - N/A   Mostly Cloudy
3:53 PM 69.1 °F 52.0 °F 54% 29.59 in 10.0 mi Variable 6.9 mph - N/A   Mostly Cloudy
4:53 PM 70.0 °F 51.1 °F 51% 29.57 in 10.0 mi Calm Calm - N/A   Mostly Cloudy
5:53 PM 64.0 °F 53.1 °F 67% 29.58 in 10.0 mi North 12.7 mph 21.9 mph N/A   Overcast
6:53 PM 61.0 °F 55.0 °F 81% 29.59 in 10.0 mi North 8.1 mph - N/A   Overcast
7:53 PM 63.0 °F 55.0 °F 75% 29.58 in 10.0 mi NNW 8.1 mph - N/A   Overcast
8:53 PM 63.0 °F 54.0 °F 72% 29.58 in 10.0 mi Calm Calm - N/A   Mostly Cloudy
9:53 PM 60.1 °F 54.0 °F 80% 29.58 in 10.0 mi Calm Calm - N/A   Partly Cloudy
10:53 PM 59.0 °F 55.0 °F 87% 29.59 in 10.0 mi Calm Calm - N/A   Mostly Cloudy
11:53 PM 57.9 °F 55.0 °F 90% 29.59 in 10.0 mi Calm Calm - N/A   Overcast